GW2005 Weather Reports


time (UTC)temp
F
wind
direction
speed
knots
gust
knots
rain 1hr
in
rain 24hr
in
rain mn
in
humidity
%
barometer
mb
20260504141053 64 223 3.5 12.2 0.00 0.00 0.00 50 1014.2
20260504140552 64 204 2.6 11.3 0.00 0.00 0.00 49 1014.3
20260504140323 64 223 3.5 9.6 0.00 0.00 0.00 56 1014.3
20260504130446 57 190 0.9 4.3 0.00 0.00 0.00 66 1015.0
20260504110304 42 190 0.0 0.0 0.00 0.00 0.00 93 1015.5
20260504100130 43 190 0.0 0.0 0.00 0.00 0.00 89 1015.2
20260504081348 45 190 0.0 0.9 0.00 0.00 0.00 87 1015.4
20260504081113 45 190 0.0 0.0 0.00 0.00 0.00 87 1015.5
20260504080332 45 190 0.0 0.0 0.00 0.00 0.00 87 1015.4
20260504050406 44 209 0.0 1.7 0.00 0.00 0.00 84 1015.9
20260504045906 44 209 0.0 0.9 0.00 0.00 0.00 84 1015.8
20260504045404 44 209 0.0 0.9 0.00 0.00 0.00 83 1015.8
20260504044904 44 209 0.0 0.0 0.00 0.00 0.00 81 1015.6
20260504044404 44 209 0.0 0.0 0.00 0.00 0.00 81 1015.7
20260504043905 44 209 0.0 0.0 0.00 0.00 0.00 81 1015.6
20260504043404 44 209 0.0 0.0 0.00 0.00 0.00 81 1015.5
20260504043137 44 209 0.0 0.0 0.00 0.00 0.00 80 1015.6
20260504042636 44 209 0.0 0.0 0.00 0.00 0.00 80 1015.5
20260504041904 44 209 0.0 0.0 0.00 0.00 0.00 81 1015.5
20260504041405 44 209 0.0 0.0 0.00 0.00 0.00 82 1015.5
20260504041133 44 209 0.0 0.0 0.00 0.00 0.00 81 1015.5
20260504040402 44 209 0.0 0.0 0.00 0.00 0.00 80 1015.4
20260504035852 44 209 0.0 0.0 0.00 0.00 0.00 80 1015.3
20260504035346 44 209 0.0 0.0 0.00 0.00 0.00 80 1015.3
20260504034840 44 209 0.0 0.0 0.00 0.00 0.00 81 1015.4
20260504034558 44 209 0.0 0.0 0.00 0.00 0.00 82 1015.3
20260504034051 44 209 0.0 0.0 0.00 0.00 0.00 83 1015.5
20260504033546 44 209 0.0 0.0 0.00 0.00 0.00 80 1015.6
20260504032808 44 209 0.0 0.0 0.00 0.00 0.00 82 1015.5
20260504032530 44 209 0.0 0.0 0.00 0.00 0.00 82 1015.5
20260504031753 44 209 0.0 0.0 0.00 0.00 0.00 81 1015.5
20260504031240 44 209 0.0 0.0 0.00 0.00 0.00 80 1015.4
20260504030733 44 209 0.0 0.0 0.00 0.00 0.00 79 1015.3
20260504030226 44 209 0.0 0.0 0.00 0.00 0.00 79 1015.4
20260504025716 44 209 0.0 0.0 0.00 0.00 0.00 77 1015.5
20260504025210 44 209 0.0 0.0 0.00 0.00 0.00 76 1015.5
20260504024705 44 209 0.0 0.0 0.00 0.00 0.00 76 1015.4
20260504024425 45 209 0.0 0.0 0.00 0.00 0.00 74 1015.4
20260504023648 45 209 0.0 0.0 0.00 0.00 0.00 75 1015.5
20260504023142 45 209 0.0 1.7 0.00 0.00 0.00 75 1015.4
20260504022903 46 209 0.9 2.6 0.00 0.00 0.00 75 1015.3
20260504022128 46 209 0.9 2.6 0.00 0.00 0.00 75 1015.3
20260504021628 46 209 0.9 1.7 0.00 0.00 0.00 73 1015.3
20260504021128 46 209 0.9 1.7 0.00 0.00 0.00 72 1015.3
20260504020629 47 209 0.0 1.7 0.00 0.00 0.00 71 1015.3
20260504020124 47 209 0.0 1.7 0.00 0.00 0.00 71 1015.3
20260504015624 48 209 0.9 1.7 0.00 0.00 0.00 69 1015.2
20260504015124 48 209 0.9 1.7 0.00 0.00 0.00 69 1015.2
20260504014624 48 209 0.9 1.7 0.00 0.00 0.00 68 1015.1
20260504014124 48 209 0.0 1.7 0.00 0.00 0.00 68 1015.1
20260504013624 49 209 0.0 1.7 0.00 0.00 0.00 66 1015.1
20260504013124 49 209 0.9 1.7 0.00 0.00 0.00 65 1014.9
20260504012624 49 209 0.9 1.7 0.00 0.00 0.00 64 1014.8
20260504012410 50 209 0.9 1.7 0.00 0.00 0.00 62 1014.9
20260504011624 50 209 0.9 1.7 0.00 0.00 0.00 61 1014.9
20260504011208 51 209 0.9 1.7 0.00 0.00 0.00 60 1014.9
20260504010622 51 209 0.0 0.9 0.00 0.00 0.00 63 1014.9
20260504010122 52 209 0.0 0.0 0.00 0.00 0.00 60 1014.8
20260504005621 53 209 0.0 0.0 0.00 0.00 0.00 62 1014.7
20260504005122 53 209 0.0 1.7 0.00 0.00 0.00 63 1014.7
20260504004622 53 209 0.9 3.5 0.00 0.00 0.00 62 1014.7
20260504004132 54 207 0.0 3.5 0.00 0.00 0.00 54 1014.7
20260504003625 54 223 0.0 0.9 0.00 0.00 0.00 53 1014.6
20260504003357 55 223 0.0 0.9 0.00 0.00 0.00 52 1014.5
20260504002629 56 223 0.0 0.0 0.00 0.00 0.00 52 1014.5
20260504002122 57 223 0.0 0.0 0.00 0.00 0.00 44 1014.4
20260504001654 58 223 0.0 0.0 0.00 0.00 0.00 45 1014.4
20260504001120 58 223 0.0 0.9 0.00 0.00 0.00 44 1014.4
20260504000619 59 223 0.0 0.9 0.00 0.00 0.00 42 1014.3
20260504000137 59 223 0.0 0.9 0.00 0.00 0.00 41 1014.3
20260503235851 60 223 0.0 1.7 0.00 0.00 0.00 40 1014.4
20260503235120 60 223 0.0 1.7 0.00 0.00 0.00 38 1014.3
20260503234854 62 222 0.0 0.9 0.00 0.00 0.00 39 1014.3
20260503234350 62 222 0.0 0.0 0.00 0.00 0.00 34 1014.3
20260503233619 62 222 0.0 2.6 0.00 0.00 0.00 35 1014.3
20260503233128 62 222 0.9 2.6 0.00 0.00 0.00 33 1014.2
20260503232630 63 222 0.9 2.6 0.00 0.00 0.00 34 1014.2
20260503232348 63 222 0.9 2.6 0.00 0.00 0.00 33 1014.2
20260503231627 63 219 0.0 2.6 0.00 0.00 0.00 35 1014.2
20260503231118 63 284 0.0 1.7 0.00 0.00 0.00 33 1014.1
20260503225618 63 295 0.0 2.6 0.00 0.00 0.00 34 1014.1
20260503225118 63 295 0.9 2.6 0.00 0.00 0.00 32 1014.0
20260503224629 63 295 0.9 2.6 0.00 0.00 0.00 32 1014.0
20260503224349 63 292 0.0 2.6 0.00 0.00 0.00 30 1013.9
20260503223617 64 283 0.0 1.7 0.00 0.00 0.00 30 1013.9
20260503223119 64 283 0.0 1.7 0.00 0.00 0.00 31 1014.0
20260503222618 64 273 0.9 5.2 0.00 0.00 0.00 30 1014.1
20260503222118 64 236 0.9 5.2 0.00 0.00 0.00 31 1014.1
20260503221618 64 296 0.9 6.1 0.00 0.00 0.00 33 1014.1
20260503221118 64 234 0.9 6.1 0.00 0.00 0.00 31 1014.2
20260503220613 64 209 0.9 2.6 0.00 0.00 0.00 32 1014.2
20260503220113 64 53 0.9 3.5 0.00 0.00 0.00 32 1014.3
20260503215118 65 239 0.9 4.3 0.00 0.00 0.00 31 1014.2
20260503214844 64 265 0.9 3.5 0.00 0.00 0.00 33 1014.2
20260503214113 64 247 1.7 5.2 0.00 0.00 0.00 33 1014.2
20260503213616 64 211 0.9 5.2 0.00 0.00 0.00 32 1014.2
20260503213108 64 16 0.9 2.6 0.00 0.00 0.00 32 1014.3
20260503212609 64 289 1.7 6.1 0.00 0.00 0.00 30 1014.3
20260503212108 64 225 2.6 7.8 0.00 0.00 0.00 32 1014.3
20260503211609 64 245 2.6 7.8 0.00 0.00 0.00 32 1014.3
20260503211339 65 275 1.7 3.5 0.00 0.00 0.00 32 1014.4
20260503210613 65 297 0.9 3.5 0.00 0.00 0.00 36 1014.4
20260503210109 64 297 0.9 1.7 0.00 0.00 0.00 34 1014.4
20260503205608 64 348 1.7 5.2 0.00 0.00 0.00 34 1014.4
20260503205107 64 336 1.7 5.2 0.00 0.00 0.00 33 1014.6
20260503204606 64 19 1.7 4.3 0.00 0.00 0.00 35 1014.6
20260503204106 64 298 1.7 4.3 0.00 0.00 0.00 33 1014.7
20260503203605 64 211 1.7 7.8 0.00 0.00 0.00 31 1014.7
20260503203102 64 254 2.6 9.6 0.00 0.00 0.00 34 1014.6
20260503202602 64 260 1.7 9.6 0.00 0.00 0.00 32 1014.8
20260503202102 64 263 1.7 7.0 0.00 0.00 0.00 31 1014.8
20260503201833 64 65 1.7 4.3 0.00 0.00 0.00 34 1014.8
20260503201333 64 11 2.6 6.1 0.00 0.00 0.00 37 1014.9
20260503200833 64 303 2.6 6.1 0.00 0.00 0.00 33 1014.9
20260503195602 64 340 0.9 4.3 0.00 0.00 0.00 33 1015.0
20260503195056 64 210 1.7 4.3 0.00 0.00 0.00 32 1015.1
20260503194542 64 335 1.7 3.5 0.00 0.00 0.00 35 1015.1
20260503193529 63 313 1.7 7.8 0.00 0.00 0.00 38 1015.4
20260503193013 63 54 1.7 4.3 0.00 0.00 0.00 38 1015.5
20260503192507 62 57 1.7 4.3 0.00 0.00 0.00 36 1015.6
20260503192001 63 190 1.7 4.3 0.00 0.00 0.00 36 1015.9
20260503191448 63 287 1.7 3.5 0.00 0.00 0.00 37 1015.8
20260503190940 63 324 1.7 2.6 0.00 0.00 0.00 36 1015.8
20260503190439 63 32 1.7 3.5 0.00 0.00 0.00 37 1016.0
20260503185924 62 182 1.7 7.0 0.00 0.00 0.00 35 1016.1
20260503185418 62 207 1.7 7.0 0.00 0.00 0.00 37 1016.1
20260503184912 62 348 1.7 6.1 0.00 0.00 0.00 39 1016.2
20260503184358 62 290 1.7 6.1 0.00 0.00 0.00 39 1016.4
20260503183617 61 339 1.7 7.8 0.00 0.00 0.00 40 1016.3
20260503182832 61 298 1.7 4.3 0.00 0.00 0.00 37 1016.3
20260503182557 61 305 1.7 4.3 0.00 0.00 0.00 37 1016.5
20260503182051 61 331 1.7 4.3 0.00 0.00 0.00 37 1016.5
20260503181306 60 241 1.7 6.1 0.00 0.00 0.00 41 1016.6
20260503181031 61 126 1.7 6.1 0.00 0.00 0.00 38 1016.7
20260503180254 60 316 0.9 3.5 0.00 0.00 0.00 41 1016.6
20260503180011 60 157 1.7 5.2 0.00 0.00 0.00 38 1016.6
20260503175234 60 121 2.6 6.1 0.00 0.00 0.00 39 1016.6
20260503174728 59 175 3.5 10.4 0.00 0.00 0.00 42 1016.8
20260503174445 59 238 3.5 10.4 0.00 0.00 0.00 40 1016.8
20260503173202 59 290 0.9 7.0 0.00 0.00 0.00 39 1016.8
20260503172919 58 245 0.9 3.5 0.00 0.00 0.00 42 1016.9
20260503172142 58 98 1.7 6.1 0.00 0.00 0.00 41 1017.0
20260503171636 58 219 1.7 6.1 0.00 0.00 0.00 40 1017.0
20260503171122 58 262 1.7 5.2 0.00 0.00 0.00 40 1017.0
20260503170616 57 186 1.7 4.3 0.00 0.00 0.00 44 1017.2
20260503170110 57 288 0.9 4.3 0.00 0.00 0.00 41 1017.4
20260503160157 56 81 1.7 6.1 0.00 0.00 0.00 44 1018.0
20260503150754 54 275 1.7 7.0 0.00 0.00 0.00 50 1018.3
20260503150518 53 246 2.6 6.1 0.00 0.00 0.00 44 1018.4